www.pogodaiklimat.ru

Погода и климат >> Архив погоды >> Пакистан >> Pad Idan


ПОГОДА в Pad Idan

  • Прогноз погоды в Pad Idan
  • Монитор погоды в Pad Idan
  • Климат города

АРХИВ ПОГОДЫ в Pad Idan

Время (UTC), дата Ветер
(напр.,м/с)
 
Видим.   Явления Облачность Т
(С)
Тd
(С)
f
(%)
Тe
(С)
Тes
(С)
Комфортность P
(гПа)
Po
(гПа)
Тmin
(С)
Tmax
(С)
R
(мм)
R24
(мм)
S
(см)
15 8.11 штиль 0 4000 м ясно +26.0 +16.4 55 +29 +29 душно 1011.8 1000.0
18 8.11 штиль 0 4000 м ясно +20.0 +13.0 64 +22 +22 комфорт 1012.7 1000.0
21 8.11 штиль 0 4000 м ясно +17.0 +11.5 70 +17 +17 1012.3 1012.0
00 9.11 штиль 0 4000 м ясно +15.0 +11.3 79 +15 +15 1012.1 1016.7
03 9.11 штиль 0 4000 м ясно +16.0 +10.4 69 +16 +17 1013.2 1013.0 +14.0
06 9.11 С 1 4000 м ясно +24.0 +10.6 43 +25 +37 комфорт 1015.4 1000.0
09 9.11 С 1 4000 м ясно +27.5 +13.2 41 +29 +40 жарко 1013.0 1000.0
12 9.11 С 1 4000 м ясно +30.0 +14.5 39 +32 +33 жарко 1010.5 1005.2 +31.0
15 9.11 С 1 4000 м ясно +25.0 +15.1 54 +28 +28 жарко 1011.8 1000.0
18 9.11 штиль 0 4000 м ясно +20.0 +13.0 64 +22 +22 комфорт 1012.9 1007.4
21 9.11 штиль 0 4000 м ясно +18.5 +12.3 67 +19 +19 1012.3 1000.0
00 10.11 штиль 0 4000 м ясно +15.0 +10.3 73 +15 +15 1011.5 1005.9
03 10.11 штиль 0 4000 м ясно +16.5 +9.9 65 +16 +17 1012.5 1005.9 +13.1
06 10.11 штиль 0 4000 м ясно +27.0 +13.6 44 +29 +41 жарко 1014.9 1011.3
09 10.11 С 1 4000 м ясно +28.5 +12.4 37 +30 +40 жарко 1014.0 1014.0
12 10.11 штиль 0 4000 м ясно +31.0 +16.9 43 +35 +35 очень
душно
1011.4 1006.1 +32.0
15 10.11 штиль 0 4000 м ясно +26.0 +16.4 55 +29 +29 душно 1012.0 1000.0
18 10.11 штиль 0 4000 м ясно +21.5 +15.7 70 +25 +25 комфорт 1013.3 1000.0
21 10.11 штиль 0 4000 м ясно +18.0 +12.7 71 +18 +18 1012.3 1012.0
00 11.11 штиль 0 4000 м ясно +15.0 +11.3 79 +15 +15 1011.7 1006.3
03 11.11 штиль 0 4000 м ясно +16.0 +11.4 74 +16 +17 1014.5 1009.1 +14.1
06 11.11 С 1 4000 м ясно +27.0 +13.6 44 +29 +40 жарко 1015.6 1010.3
09 11.11 С 1 4000 м ясно +31.5 +15.5 38 +34 +44 душно 1013.7 1014.0
12 11.11 С 1 4000 м ясно +34.0 +18.2 39 +38 +39 очень
душно
1013.0 1000.0 +34.5
15 11.11 С 1 4000 м ясно +26.0 +16.2 55 +29 +29 душно 1014.2 1000.0
18 11.11 С 1 4000 м ясно +20.5 +15.1 71 +25 +25 комфорт 1015.8 1000.0
21 11.11 С 1 4000 м ясно +18.0 +14.2 78 +19 +19 1014.5 1015.0
00 12.11 С 1 4000 м ясно +16.0 +12.3 79 +17 +17 1013.2 1000.0
03 12.11 штиль 0 4000 м дымка ясно +17.5 +11.1 66 +18 +19 1013.4 1000.0 +15.1
06 12.11 С 1 4000 м 3/0
[Ci fib]
+24.0 +15.8 60 +27 +38 жарко 1015.3 1000.0
09 12.11 С 1 4000 м 3/0
[Ci fib]
+26.5 +17.0 56 +30 +41 душно 1013.2 1000.0
12 12.11 С 1 1000 м дымка ясно +28.5 +18.5 55 +34 +34 очень
душно
1009.7 1004.4 +30.1
15 12.11 штиль 0 1000 м дымка ясно +26.0 +18.7 64 +31 +31 очень
душно
1011.1 1000.0
18 12.11 штиль 0 1000 м дымка ясно +22.0 +16.3 70 +26 +26 душно 1011.8 1006.3
21 12.11 штиль 0 4000 м дымка ясно +19.5 +13.3 67 +21 +21 комфорт 1010.6 1000.0
00 13.11 штиль 0 4000 м дымка ясно +16.0 +13.3 84 +16 +16 1009.8 1004.4
03 13.11 штиль 0 200 м туман ясно +17.0 +13.5 80 +17 +18 1011.0 1005.4 +14.1
09 13.11 С 1 2000 м дым ясно +24.0 +16.6 63 +27 +38 жарко 1010.7 1000.0
12 13.11 штиль 0 50 м туман на расстоянии ясно +27.0 +18.5 60 +32 +33 очень
душно
1008.1 1002.9 +27.5
15 13.11 штиль 0 500 м туман на расстоянии ясно +21.0 +15.1 69 +24 +24 комфорт 1008.7 1000.0
18 13.11 штиль 0 500 м туман на расстоянии ясно +19.0 +15.6 81 +20 +20 1010.4 998.8
21 13.11 штиль 0 500 м туман на расстоянии ясно +17.0 +13.5 80 +17 +17 1009.9 1000.0
00 14.11 штиль 0 1000 м дымка ясно +17.0 +13.5 80 +17 +17 1009.9 1004.5
03 14.11 С 1 1000 м дымка ясно +16.5 +13.9 85 +17 +18 1012.5 1007.1 +15.5
06 14.11 С 1 1000 м дымка ясно +23.4 +16.2 64 +28 +38 душно 1013.6 1014.0
09 14.11 С 1 1000 м дымка ясно +26.5 +17.9 59 +31 +42 душно 1011.6 1000.0
12 14.11 штиль 0 4000 м ясно +29.0 +16.3 46 +32 +33 душно 1010.9 1000.0 +29.5
15 14.11 штиль 0 4000 м ясно +26.0 +16.4 55 +29 +29 душно 1012.3 1000.0
18 14.11 штиль 0 4000 м ясно +19.0 +13.8 72 +20 +20 1014.2 1000.0
21 14.11 штиль 0 4000 м ясно +16.0 +10.2 68 +16 +16 1013.0 1000.0
00 15.11 штиль 0 4000 м ясно +15.5 +10.8 74 +15 +15 1013.1 1000.0
03 15.11 штиль 0 1000 м дымка ясно +15.5 +10.8 74 +15 +16 1015.6 1000.0 +15.1
06 15.11 В 1 1000 м дымка ясно +25.5 +12.7 45 +27 +38 жарко 1018.2 1000.0
09 15.11 В 1 4000 м ясно +28.5 +13.5 40 +30 +41 жарко 1016.0 1000.0

 

Местоположение метеостанции Pad Idan (Пакистан): широта 26.85 долгота 68.13 высота над уровнем моря 47 м.

В архиве по умолчанию представлена погода в Pad Idan за последнюю неделю. Архивные данные за месяц целиком и за предыдущие месяцы, начиная с января 2011 года, Вы можете получить, выбрав интересующий диапазон дат из раскрывающегося списка и нажав кнопку "Ввод!".


*Определитесь, кто Вы:
робот инопланетянин человек

Внимание! Время в таблицах - всемирное. Для получения местного времени необходимо прибавить поправку, которая в Pad Idan равна 5 ч.

Смотрите также архив погоды в соседних городах и на ближайших метеорологических станциях:

Погода в Nawabshah (Пакистан) (71 км)
Погода в Rohri (Пакистан) (119 км)
Погода в Jacobabad (Пакистан) (165 км)
Погода в Hyderabad (Пакистан) (166 км)
Погода в Khuzdar (Пакистан) (184 км)
Погода в Sakrand (Пакистан) (192 км)
Погода в Chhor (Пакистан) (221 км)
Погода в Karachi (Пакистан) (239 км)
Погода в Badin (Пакистан) (259 км)
Погода в Jaisalmer (Rajasthan, Индия) (277 км)

Пояснения к столбцам:

Ветер - указаны скорость ветра в м/с - средняя за 10 мин, порывы в срок и между сроками (в фигурных скобках) и направление, откуда дует ветер: С - северный, СВ - северо-восточный, В - восточный, ЮВ - юго-восточный, Ю - южный, ЮЗ - юго-западный, З - западный, СЗ - северо-западный.
Видимость - горизонтальная дальность видимости в метрах или километрах. При видимости от 1 до 10 км при отсутствии осадков обычно наблюдается дымка, при ухудшении видимости до 1 км и менее - туман. В сухую погоду видимость может ухудшаться дымом, пылью или мглою.
Явления - указаны атмосферные явления, наблюдавшиеся в срок или в последний час перед сроком; фигурными скобками обозначены явления, наблюдавшиеся между сроками (за 1-3 часа до срока); квадратными скобками обозначены град или гололедные отложения с указанием их диаметра в мм.
Облачность - указаны через наклонную черту общая и нижняя облачность в баллах и высота нижней границы облаков в метрах; квадратными скобками обозначены формы облаков: Ci - перистые, Cs - перисто-слоистые, Cc - перисто-кучевые, Ac - высококучевые, As - высокослоистые, Sc - слоисто-кучевые, Ns - слоисто-дождевые, Cu - кучевые, Cb - кучево-дождевые. Подробнее классификацию облаков см. в Атласе облаков (PDF).
T - Температура воздуха - температура, измеренная на высоте 2 м над землей.
Td - Температура точки росы - температура, при понижении до которой содержащийся в воздухе водяной пар достигнет насыщения.
f - Относительная влажность воздуха - влажноcть воздуха, измеренная на высоте 2 м над землей.
Te - Эффективная температура - температура, которую ощущает одетый по сезону человек в тени. Характеристика душности погоды. При расчете учитывается влияние влажности воздуха и скорости ветра на теплоощущения человека.
Tes - Эффективная температура на солнце - температура, которую ощущает человек, с поправкой на солнечный нагрев. Характеристика знойности погоды. Зависит от высоты солнца над горизонтом, облачности и скорости ветра. Ночью, в пасмурную погоду, а также при ветре 12 м/с и более поправка равна нулю.
P - Атмосферное давление - приведенное к уровню моря атмосферное давление.
Po - Атмосферное давление - измеренное на уровне метеостанции атмосферное давление.
Tmin - Минимальная температура - минимум температуры воздуха на высоте 2 м над землей.
Tmax - Максимальная температура - максимум температуры воздуха на высоте 2 м над землей.
R - Количество осадков - Количество выпавших осадков за период времени, мм. При наведении курсора мыши на число - период времени, за который выпало указанное количество осадков.
R24 - Количество осадков - Количество выпавших осадков за 24 часа, мм.
S - Снежный покров - Высота снежного покрова, см. При наведении курсора мыши на число - состояние снежного покрова и степень покрытия местности в баллах.